Taunton, MA

1:16 PM EDT on April 30, 2017 (GMT -0400)
Taunton Municipal

Weather History for KTAN - September, 2012

Change the Weather History Date:

Monday, September 3, 2012

  Actual Average Record
Temperature  
Mean Temperature 63 °F -  
Max Temperature 79 °F 77 °F 92 °F (1973)
Min Temperature 48 °F 56 °F 40 °F (1967)
Degree Days  
Heating Degree Days 2    
Growing Degree Days 13 (Base 50)    
Moisture  
Dew Point 53 °F    
Average Humidity 86    
Maximum Humidity 100    
Minimum Humidity 45    
Precipitation  
Precipitation 0.00 in - - ()
Sea Level Pressure  
Sea Level Pressure 30.16 in    
Wind  
Wind Speed 1 mph (ESE)    
Max Wind Speed 10 mph    
Max Gust Speed -    
Visibility 4 miles    
Events Fog    
Averages and records for this station are not official NWS values.
T = Trace of Precipitation, MM = Missing Value Source: NWS Daily Summary

Daily Weather History Graph

Daily Weather History Graph

Search for Another Location

Airport or City:

Trip Planner

Search our weather history database for the weather conditions in past years. The results will help you decide how hot, cold, wet, or windy it might be!

Date:

Astronomy

Sep. 03, 2012 Rise Set
Actual Time 6:12 AM EDT 7:13 PM EDT
Civil Twilight 5:43 AM EDT 7:41 PM EDT
Nautical Twilight 5:09 AM EDT 8:15 PM EDT
Astronomical Twilight 4:34 AM EDT 8:51 PM EDT
Moon 8:26 PM EDT (9/3) 9:21 AM EDT (9/3)
Length of Visible Light 13h 58m
Length of Day
13h 01m
Waning Gibbous, 90% of the Moon is Illuminated
Sep 3
Waning Gibbous
Sep 8
Last Quarter
Sep 15
New
Sep 22
First Quarter
Sep 29
Full

Hourly Weather History & Observations

Time (EDT) Temp. Dew Point Humidity Pressure Visibility Wind Dir Wind Speed Gust Speed Precip Events Conditions
12:29 AM 53.1 °F 52.0 °F 96% 30.14 in 1.2 mi Calm Calm - N/A   Partly Cloudy
12:31 AM 53.1 °F 51.1 °F 93% 30.14 in 4.0 mi Calm Calm - N/A   Partly Cloudy
12:45 AM 52.0 °F 51.1 °F 97% 30.14 in 1.5 mi Calm Calm - N/A   Partly Cloudy
12:47 AM 51.8 °F 51.8 °F 100% 30.14 in 1.0 mi Calm Calm - N/A   Mist
12:49 AM 51.8 °F 51.8 °F 100% 30.14 in 0.8 mi Calm Calm - N/A   Clear
12:52 AM 53.1 °F 51.1 °F 93% 30.14 in 0.5 mi Calm Calm - N/A Fog Fog
1:21 AM 52.0 °F 50.0 °F 93% 30.14 in 0.8 mi Calm Calm - N/A   Mist
1:24 AM 52.0 °F 50.0 °F 93% 30.14 in 1.2 mi Calm Calm - N/A   Partly Cloudy
1:28 AM 51.1 °F 50.0 °F 96% 30.14 in 2.0 mi Calm Calm - N/A   Clear
1:35 AM 51.1 °F 50.0 °F 96% 30.14 in 1.2 mi Calm Calm - N/A   Partly Cloudy
1:37 AM 51.1 °F 50.0 °F 96% 30.13 in 0.8 mi Calm Calm - N/A   Mist
1:50 AM 51.8 °F 50.0 °F 94% 30.13 in 1.5 mi Calm Calm - N/A   Mostly Cloudy
1:52 AM 52.0 °F 50.0 °F 93% 30.14 in 1.5 mi Calm Calm - N/A   Mostly Cloudy
1:54 AM 51.1 °F 50.0 °F 96% 30.13 in 0.8 mi Calm Calm - N/A   Mist
2:11 AM 51.1 °F 48.9 °F 92% 30.14 in 1.8 mi Calm Calm - N/A   Mostly Cloudy
2:13 AM 51.1 °F 48.9 °F 92% 30.14 in 3.0 mi Calm Calm - N/A   Mostly Cloudy
2:26 AM 51.1 °F 48.9 °F 92% 30.15 in 3.0 mi Calm Calm - N/A   Partly Cloudy
2:34 AM 51.1 °F 48.9 °F 92% 30.15 in 2.5 mi Calm Calm - N/A   Partly Cloudy
2:44 AM 51.1 °F 48.9 °F 92% 30.15 in 1.2 mi Calm Calm - N/A   Partly Cloudy
2:49 AM 51.8 °F 48.2 °F 88% 30.15 in 0.8 mi Calm Calm - N/A   Mist
2:52 AM 51.1 °F 48.9 °F 92% 30.15 in 0.8 mi Calm Calm - N/A   Mist
3:05 AM 51.1 °F 48.9 °F 92% 30.15 in 1.5 mi Calm Calm - N/A   Mostly Cloudy
3:17 AM 50.0 °F 48.9 °F 96% 30.15 in 0.8 mi Calm Calm - N/A   Mist
3:27 AM 51.1 °F 48.9 °F 92% 30.15 in 1.0 mi Calm Calm - N/A   Mist
3:35 AM 50.0 °F 48.0 °F 93% 30.15 in 0.5 mi Calm Calm - N/A Fog Fog
3:43 AM 50.0 °F 48.0 °F 93% 30.15 in 0.2 mi Calm Calm - N/A Fog Fog
3:52 AM 50.0 °F 48.0 °F 93% 30.15 in 0.5 mi Calm Calm - N/A Fog Fog
4:27 AM 50.0 °F 48.0 °F 93% 30.16 in 0.5 mi Calm Calm - N/A Fog Fog
4:44 AM 48.9 °F 48.0 °F 97% 30.16 in 0.8 mi Calm Calm - N/A   Mist
5:10 AM 50.0 °F 48.0 °F 93% 30.16 in 1.5 mi Calm Calm - N/A   Overcast
5:14 AM 50.0 °F 48.0 °F 93% 30.16 in 0.8 mi Calm Calm - N/A   Mist
5:52 AM 50.0 °F 48.9 °F 96% 30.17 in 0.2 mi Calm Calm - N/A Fog Fog
6:52 AM 54.0 °F 52.0 °F 93% 30.19 in 0.2 mi Calm Calm - N/A Fog Fog
7:52 AM 57.9 °F 57.0 °F 97% 30.21 in 0.2 mi Calm Calm - N/A Fog Fog
8:40 AM 60.1 °F 59.0 °F 96% 30.21 in 1.5 mi Calm Calm - N/A   Overcast
8:52 AM 61.0 °F 59.0 °F 93% 30.22 in 2.0 mi East 5.8 mph - N/A   Overcast
9:01 AM 61.0 °F 59.0 °F 93% 30.21 in 3.0 mi East 4.6 mph - N/A   Overcast
9:52 AM 66.0 °F 60.1 °F 81% 30.22 in 10.0 mi Variable 3.5 mph - N/A   Overcast
10:03 AM 66.0 °F 60.1 °F 81% 30.22 in 10.0 mi Calm Calm - N/A   Overcast
10:24 AM 68.0 °F 61.0 °F 78% 30.22 in 10.0 mi Calm Calm - N/A   Mostly Cloudy
10:48 AM 71.6 °F 60.8 °F 69% 30.21 in 10.0 mi Variable 5.8 mph - N/A   Mostly Cloudy
10:52 AM 71.1 °F 61.0 °F 70% 30.21 in 10.0 mi NNE 6.9 mph - N/A   Mostly Cloudy
11:00 AM 72.0 °F 61.0 °F 68% 30.21 in 10.0 mi Variable 3.5 mph - N/A   Scattered Clouds
11:52 AM 75.0 °F 60.1 °F 60% 30.20 in 10.0 mi East 4.6 mph - N/A   Scattered Clouds
12:52 PM 75.0 °F 57.0 °F 53% 30.19 in 10.0 mi ESE 3.5 mph - N/A   Clear
1:52 PM 78.1 °F 55.0 °F 45% 30.18 in 10.0 mi ESE 3.5 mph - N/A   Clear
2:52 PM 78.1 °F 57.0 °F 48% 30.17 in 10.0 mi SE 10.4 mph - N/A   Clear
3:52 PM 75.9 °F 57.0 °F 52% 30.17 in 10.0 mi SSE 6.9 mph - N/A   Mostly Cloudy
4:52 PM 75.0 °F 55.9 °F 51% 30.17 in 10.0 mi Variable 6.9 mph - N/A   Partly Cloudy
5:52 PM 72.0 °F 55.9 °F 57% 30.17 in 10.0 mi SSE 8.1 mph - N/A   Clear
6:52 PM 68.0 °F 55.9 °F 65% 30.16 in 10.0 mi SSE 4.6 mph - N/A   Clear
7:52 PM 61.0 °F 55.9 °F 83% 30.17 in 10.0 mi Calm Calm - N/A   Clear
8:52 PM 57.9 °F 55.0 °F 90% 30.17 in 10.0 mi Calm Calm - N/A   Clear
9:52 PM 57.0 °F 55.0 °F 93% 30.17 in 10.0 mi Calm Calm - N/A   Mostly Cloudy
11:21 PM 55.0 °F 53.1 °F 93% 30.16 in 2.0 mi Calm Calm - N/A   Scattered Clouds
11:30 PM 55.0 °F 53.1 °F 93% 30.16 in 7.0 mi Calm Calm - N/A   Partly Cloudy
11:52 PM 55.9 °F 53.1 °F 90% 30.16 in 10.0 mi Calm Calm - N/A   Mostly Cloudy